LARES-2

Last updated on Wed Jun 24 2026 00:03:44 GMT+0000 (Coordinated Universal Time)

1 53105U 22080A 26171.29947139 -.00000019 00000+0 00000+0 0 9996 2 53105 70.1607 304.2616 0005374 334.2927 25.7338 6.38965102 91860
UTC large
Height (km)
Speed (km/s)
/
Latitude / Longitude
Inclination (degrees)
Orbital Period (minutes)
Azimuth
Elevation
Range (km)
Doppler Factor

Next 0 passes for location: London (51.5072 / 0.1276)

No passes found over London.
LARES-2